Regional Weather Roundup
Issued by NWS Little Rock, AR

Home | Current Version | Previous Version | Text Only | Print | Product List | Glossary Off
Versions: 1 2 3 4 5 6 7 8 9 10 11 12 13 14 15 16 17 18 19 20 21 22 23 24 25 26 27

000
ASUS44 KLZK 280205
RWRLZK

WEATHER ROUNDUP FOR ARKANSAS
NATIONAL WEATHER SERVICE LITTLE ROCK AR
900 PM CDT SAT AUG 27 2016

NOTE: "FAIR" INDICATES FEW OR NO CLOUDS BELOW 12,000 FEET WITH NO
SIGNIFICANT WEATHER AND/OR OBSTRUCTIONS TO VISIBILITY.

ARZ001-003-010-029-280300-
NORTHWEST ARKANSAS

CITY           SKY/WX    TMP DP  RH WIND       PRES   REMARKS
FAYETTEVILLE   CLOUDY    74  74 100 CALM      30.07R
FORT SMITH     PTCLDY    79  71  76 CALM      30.02R
HARRISON       PTCLDY    75  70  84 SW5       30.09R
BENTONVILLE    PTCLDY    79  66  65 SE5       30.08R
ROGERS         CLOUDY    78  70  76 SE6       30.09R
SILOAM SPGS      N/A    N/A N/A N/A MISG        N/A
HIGHFILL       MOCLDY    79  71  76 SE3       30.07R
SPRINGDALE     CLEAR     77  72  83 SE3       30.09R
$$

ARZ004-005-016-280300-
NORTH CENTRAL ARKANSAS

CITY           SKY/WX    TMP DP  RH WIND       PRES   REMARKS
BATESVILLE     CLEAR     79  73  83 CALM      30.04R
FLIPPIN        CLEAR     77  72  83 CALM      30.04R
MTN HOME       CLEAR     75  75 100 CALM      30.06R
$$

ARZ040-041-280300-
WEST CENTRAL ARKANSAS

CITY           SKY/WX    TMP DP  RH WIND       PRES   REMARKS
MENA           CLEAR     77  75  94 CALM      30.05R
MOUNT IDA      CLEAR     76  73  91 CALM      30.02R
$$

ARZ009-017-025-026-028-280300-
NORTHEAST ARKANSAS

CITY           SKY/WX    TMP DP  RH WIND       PRES   REMARKS
CORNING          N/A     79  75  89 SE3       30.04R
JONESBORO      CLEAR     76  72  87 CALM      30.02R
NEWPORT        LGT RAIN  79  74  84 SE3       30.03R
WALNUT RIDGE   CLEAR     81  72  74 SE6       30.02R
BLYTHEVILLE    CLEAR     81  74  79 SE6       30.04R HX  86
$$

ARZ022-023-033-042-044-280300-
CENTRAL ARKANSAS

CITY           SKY/WX    TMP DP  RH WIND       PRES   REMARKS
LITTLE ROCK    PTCLDY    83  72  69 E5        30.02R HX  88
N LITTLE ROCK    N/A     82  72  72 SE3       30.00R HX  87
JACKSONVILLE   CLEAR     77  76  96 CALM      30.02R
SEARCY         CLEAR     77  75  93 CALM      30.04R
HOT SPRINGS    CLEAR     81  72  74 CALM      30.03R HX  85
RUSSELLVILLE   PTCLDY    79  77  94 CALM      30.02R
$$

ARZ036-280300-
EAST ARKANSAS

CITY           SKY/WX    TMP DP  RH WIND       PRES   REMARKS
WEST MEMPHIS   CLEAR     80  72  76 E5        30.01S
$$

ARZ050-053-066-070-073-280300-
SOUTHWEST ARKANSAS

CITY           SKY/WX    TMP DP  RH WIND       PRES   REMARKS
ARKADELPHIA    FAIR      78  75  90 CALM      30.01R
TEXARKANA      PTCLDY    79  73  82 CALM      30.01R
EL DORADO      PTCLDY    78  75  90 CALM      30.00R
DE QUEEN       PTCLDY    78  77  96 CALM      29.99R
$$

ARZ056-057-069-280300-
SOUTHEAST ARKANSAS

CITY           SKY/WX    TMP DP  RH WIND       PRES   REMARKS
PINE BLUFF     CLEAR     79  74  84 CALM      30.01R
STUTTGART      PTCLDY    84  70  61 E5        30.02R HX  88
MONTICELLO     PTCLDY    81  76  84 CALM      30.00R HX  87

$$






USA.gov is the U.S. government's official web portal to all federal, state and local government web resources and services.